Regional Weather Roundup
Issued by NWS

Home | Current Version | Previous Version | Text Only | Print | Product List | Glossary On
Versions: 1 2 3 4 5 6 7 8 9 10 11 12 13 14 15 16 17 18 19 20 21 22 23 24 25 26 27 28 29 30 31 32 33 34 35 36 37 38 39 40 41 42 43 44 45 46 47 48 49 50
000
ASUS44 KFWD 181001
RWRTX
NORTH TEXAS HOURLY WEATHER ROUNDUP
NATIONAL WEATHER SERVICE FORT WORTH TX
400 AM CST SUN FEB 18 2018

NOTE: "FAIR" INDICATES FEW OR NO CLOUDS BELOW 12,000 FEET WITH NO
SIGNIFICANT WEATHER AND/OR OBSTRUCTIONS TO VISIBILITY.

TXZ118-119-181100-
DALLAS/FORT WORTH METROPLEX

CITY           SKY/WX    TMP DP  RH WIND       PRES   REMARKS
DFW AIRPORT    FAIR      47  44  90 E7        30.14F
DALLAS LOVE    FAIR      48  45  89 E6        30.15F
FTW MEACHAM    FAIR      48  46  93 E6        30.14F
DAL-EXECUTIVE  FAIR      47  45  93 E6        30.14F
FTW-ALLIANCE   MOCLDY    43  43 100 CALM      30.14F
FTW-NAS-JRB    FAIR      49  44  83 SE3       30.15F
FTW-SPINKS     FOG       42  41  96 CALM      30.17S VSB 3/4
ARLINGTON      FAIR      46  45  96 E5        30.15F
GRAND PRAIRIE  FAIR      46  46 100 CALM      30.17F
ADDISON        FAIR      47  44  92 E5        30.17F
MESQUITE       FAIR      44  43  95 CALM      30.17F
LANCASTER      FAIR      44  43  97 E3        30.17F FOG
$$

TXZ091>094-102>105-117-120-121-131>134-181100-
NORTH CENTRAL TEXAS

CITY           SKY/WX    TMP DP  RH WIND       PRES   REMARKS
SHRMAN/DENISON FAIR      41  40  98 CALM      30.17F FOG
BOWIE          FAIR      40  38  93 SE5       30.12F WCI  37
BRIDGEPORT     FAIR      40  40 100 CALM      30.15F
DECATUR        FAIR      42  41  95 SE5       30.12F FOG     WCI  39
DENTON         FAIR      40  39  97 SE3       30.15F
MCKINNEY       MOCLDY    43  43 100 E3        30.16F
BONHAM         CLOUDY    41  41  99 E3        30.17F FOG
ROCKWALL       FAIR      44  44 100 CALM      30.17S
TERRELL        FAIR      45  43  93 CALM      30.16F
WAXAHACHIE     FAIR      45  45 100 E3        30.16F FOG
CLEBURNE       FAIR      45  45 100 E6        30.16S FOG
GRANBURY       FAIR      44  41  91 CALM      30.16F
$$

TXZ083>090-098>101-113>116-127>130-139>142-154-155-181100-
WESTERN NORTH TEXAS

CITY           SKY/WX    TMP DP  RH WIND       PRES   REMARKS
WICHITA FALLS  FAIR      36  29  75 SE6       30.11F WCI  31
WF-KICKAPOO    FAIR      38  31  78 E3        30.14F
VERNON         FAIR      39  23  52 CALM      30.12S
ABILENE        FAIR      49  43  80 S10       30.10F
ABILENE-DYESS  CLOUDY    47  43  86 SE7       30.10F
BRECKENRIDGE   FAIR      46  40  80 SE6       30.11F
CISCO          FAIR      45  41  87 SE8       30.12F
RANGER         FAIR      46  42  88 S6        30.14S
MINERAL WELLS  FAIR      42  40  92 SE6       30.12F WCI  38
STEPHENVILLE   FAIR      45  42  90 SE3       30.16S
COMANCHE       FAIR      44  41  91 SE6       30.14S
COLEMAN        FAIR      46  38  73 S5        30.12F
$$

TXZ143>147-156>162-174-175-181100-
CENTRAL TEXAS

CITY           SKY/WX    TMP DP  RH WIND       PRES   REMARKS
WACO           MOCLDY    42  40  92 N3        30.15F FOG
WACO-MCGREGOR  FAIR      41  41 100 N6        30.15F WCI  37
HILLSBORO      FAIR      46  46 100 E3        30.14F
CORSICANA      CLOUDY    48  47  96 NE5       30.17S
MEXIA          FOG       44  43  97 N3        30.14F VSB 1/2
HEARNE         CLOUDY    51  51 100 CALM      30.14F
CAMERON        CLOUDY    51  50  95 CALM      30.14S
TEMPLE         FOG       41  41 100 NW5       30.14F VSB 1/4 WCI  38
KILLEEN        CLOUDY    46  45  98 CALM      30.12F
KILLEEN-SKYLRK MOCLDY    43  43 100 CALM      30.14F FOG
FORT HOOD      MOCLDY    45  45 100 NE3       30.10F FOG
GATESVILLE     CLOUDY    43  41  93 CALM      30.15F
HAMILTON       FAIR      45  45 100 SE5       30.14F
LAMPASAS       FAIR      46  44  95 N3        30.12S FOG
$$

TXZ095>097-106>112-122>126-135>138-148>153-164>167-181100-
EAST TEXAS

CITY           SKY/WX    TMP DP  RH WIND       PRES   REMARKS
PARIS          CLOUDY    45  44  97 E9        30.18F
SULPHUR SPRNGS MOCLDY    44  44 100 E5        30.19S FOG
MOUNT PLEASANT CLOUDY    46  45  95 E9        30.20S
GILMER         CLOUDY    46  46  97 E3        30.18S
MINEOLA        MOCLDY    43  43 100 CALM      30.17S
TYLER          CLOUDY    50  47  89 E8        30.15F
LONGVIEW       CLOUDY    50  50 100 E7        30.16F
MARSHALL       CLOUDY    47  44  88 E6        30.20S
ATHENS         CLOUDY    45  45 100 CALM      30.14F
PALESTINE      CLOUDY    51  50  97 E6        30.16F FOG
CENTER         RAIN      51  50  96 NE3       30.18R
NACOGDOCHES    LGT RAIN  52  51  97 NE3       30.16F FOG
LUFKIN         CLOUDY    53  53 100 E6        30.14F FOG
$$

SUPPLEMENTAL OBSERVATIONS (NWS FORT WORTH AREA)

CITY           SKY/WX    TMP DP  RH WIND       PRES   REMARKS
$$

SUPPLEMENTAL OBSERVATIONS (NWS NORMAN AREA)

CITY           SKY/WX    TMP DP  RH WIND       PRES   REMARKS
GOODLETT         N/A     37  27  68 SW7       30.11S WCI  31
ODELL            N/A     40  30  65 SE6       30.12F WCI  36
CROWELL          N/A     39  27  61 S3        30.12F
KNOX CITY        N/A     35  29  77 W2        30.12F
SEYMOUR          N/A     35  28  77 S2        30.12F
$$

SUPPLEMENTAL OBSERVATIONS (NWS SAN ANGELO AREA)

CITY           SKY/WX    TMP DP  RH WIND       PRES   REMARKS
WEINERT          N/A     38  30  73 SE3       30.11F
HASKELL          N/A     45  34  67 SE3       30.11F
THROCKMORTON     N/A     43  39  85 SE6       30.13S WCI  40
STAMFORD         N/A     43  40  91 CALM      30.12F
CLYDE            N/A     49  41  75 SE8       30.11F
$$

SUPPLEMENTAL OBSERVATIONS (NWS SHREVEPORT AREA)

CITY           SKY/WX    TMP DP  RH WIND       PRES   REMARKS
$$

SUPPLEMENTAL OBSERVATIONS ARE A COLLECTION OF AUTOMATED INSTRUMENTS
THAT ARE MAINTAINED BY A VARIETY OF FEDERAL AND STATE AGENCIES.
CERTAIN ELEMENTS...SUCH AS HUMIDITY VALUES AND SUSTAINED WIND
SPEEDS...MAY BE APPROXIMATED.





USA.gov is the U.S. government's official web portal to all federal, state and local government web resources and services.